Weather History for Prescott, AZ

Change the Weather History Date:

Monday, August 11, 2014

  Actual Average Record
Temperature  
Mean Temperature 76 °F 74 °F  
Max Temperature 91 °F 87 °F 99 °F (1980)
Min Temperature 61 °F 61 °F 49 °F (1949)
Degree Days  
Heating Degree Days 0    
Month to date heating degree days 0  
Since 1 July heating degree days 0  
Cooling Degree Days 11    
Month to date cooling degree days 99  
Year to date cooling degree days 779  
Growing Degree Days 26 (Base 50)    
Moisture  
Dew Point 54 °F    
Average Humidity 53    
Maximum Humidity 81    
Minimum Humidity 24    
Precipitation  
Precipitation 0.13 in 0.10 in 1.15 in (1972)
Month to date precipitation 0.63 1.00  
Year to date precipitation 3.43 8.04  
Sea Level Pressure  
Sea Level Pressure 29.98 in    
Wind  
Wind Speed 7 mph (SSE)    
Max Wind Speed 20 mph    
Max Gust Speed 23 mph    
Visibility 10 miles    
Events Rain , Thunderstorm    
T = Trace of Precipitation, MM = Missing Value Source: NWS Daily Summary

Daily Weather History Graph

Daily Weather History Graph

Search for Another Location

Airport:

Trip Planner

Search our weather history database for the weather conditions in past years. The results will help you decide how hot, cold, wet, or windy it might be!

Date:

Astronomy

Aug. 11, 2014 Rise Set
Actual Time 5:47 AM MST 7:21 PM MST
Civil Twilight 5:20 AM MST 7:48 PM MST
Nautical Twilight 4:47 AM MST 8:21 PM MST
Astronomical Twilight 4:13 AM MST 8:54 PM MST
Moon 7:59 PM MST (8/11) 6:52 AM MST (8/11)
Length of Visible Light 14h 28m
Length of Day
13h 34m
Full, 98% of the Moon is Illuminated
Aug 11
Full
Aug 17
Last Quarter
Aug 25
New
Sep 2
First Quarter
Sep 8
Full

Hourly Weather History & Observations

Time (MST) Temp. Heat Index Dew Point Humidity Pressure Visibility Wind Dir Wind Speed Gust Speed Precip Events Conditions
12:53 AM 69.1 °F - 53.1 °F 57% 29.94 in 10.0 mi SSW 4.6 mph - N/A   Partly Cloudy
1:53 AM 69.1 °F - 51.1 °F 53% 29.93 in 10.0 mi ESE 4.6 mph - N/A   Clear
2:53 AM 64.9 °F - 54.0 °F 68% 29.93 in 10.0 mi SSW 3.5 mph - N/A   Clear
3:53 AM 62.1 °F - 52.0 °F 70% 29.94 in 10.0 mi South 3.5 mph - N/A   Clear
4:53 AM 61.0 °F - 52.0 °F 72% 29.96 in 10.0 mi SSW 5.8 mph - N/A   Clear
5:53 AM 63.0 °F - 48.9 °F 60% 29.98 in 10.0 mi SSW 3.5 mph - N/A   Clear
6:53 AM 68.0 °F - 52.0 °F 56% 30.01 in 10.0 mi Calm Calm - N/A   Scattered Clouds
7:53 AM 73.9 °F - 51.1 °F 45% 29.99 in 10.0 mi Calm Calm - N/A   Scattered Clouds
8:53 AM 79.0 °F - 50.0 °F 36% 29.98 in 10.0 mi SE 9.2 mph - N/A   Clear
9:53 AM 82.0 °F - 48.0 °F 30% 29.97 in 10.0 mi SE 8.1 mph - N/A   Clear
10:53 AM 84.0 °F - 50.0 °F 31% 29.97 in 10.0 mi SSE 12.7 mph 20.7 mph N/A   Partly Cloudy
11:53 AM 86.0 °F - 50.0 °F 29% 29.96 in 10.0 mi SSE 9.2 mph 18.4 mph N/A   Scattered Clouds
12:53 PM 88.0 °F - 51.1 °F 28% 29.93 in 10.0 mi SSE 13.8 mph 21.9 mph N/A   Scattered Clouds
1:53 PM 89.1 °F - 48.9 °F 25% 29.91 in 10.0 mi ESE 10.4 mph 19.6 mph N/A   Mostly Cloudy
2:53 PM 90.0 °F - 48.9 °F 24% 29.90 in 10.0 mi South 10.4 mph - N/A   Mostly Cloudy
3:53 PM 84.0 °F 82.6 °F 54.0 °F 35% 29.92 in 10.0 mi NW 10.4 mph - N/A   Mostly Cloudy
4:46 PM 80.1 °F 80.2 °F 55.9 °F 43% 30.17 in 10.0 mi North 12.7 mph - N/A Thunderstorm Thunderstorm
4:53 PM 79.0 °F - 57.0 °F 47% 29.95 in 10.0 mi NNE 13.8 mph - N/A Thunderstorm Thunderstorm
5:53 PM 80.1 °F 80.2 °F 55.9 °F 43% 29.95 in 8.0 mi NE 8.1 mph - 0.00 in Rain , Thunderstorm Thunderstorms and Rain
6:53 PM 70.0 °F - 61.0 °F 73% 29.99 in 7.0 mi North - - 0.11 in Rain Light Rain
7:29 PM 70.0 °F - 62.1 °F 76% 30.24 in 10.0 mi South 5.8 mph - N/A Rain , Thunderstorm Light Thunderstorms and Rain
7:53 PM 70.0 °F - 63.0 °F 78% 30.00 in 10.0 mi South 6.9 mph - 0.01 in Thunderstorm Thunderstorm
8:53 PM 69.1 °F - 61.0 °F 75% 29.99 in 10.0 mi SW 9.2 mph - 0.00 in Rain , Thunderstorm Light Thunderstorms and Rain
9:53 PM 68.0 °F - 60.1 °F 76% 29.97 in 10.0 mi SSE 4.6 mph - 0.01 in Thunderstorm Thunderstorm
10:53 PM 66.9 °F - 61.0 °F 81% 29.97 in 10.0 mi SSE 3.5 mph - N/A   Clear
11:53 PM 68.0 °F - 61.0 °F 78% 29.98 in 10.0 mi Calm Calm - N/A   Partly Cloudy